Simultaneous Nadir Overpasses (SNOs) Predictions

Prediction of SNOs between NOAA-21 and LANDSAT-8 Satellite Orbit:

Table of predicted SNOs for the next 14.0 days since TLE Epoch: 12/1/2024
Index Date (NOAA-21) Time (NOAA-21) Lat,Lon (NOAA-21) SZA (NOAA-21 ) Date (LANDSAT-8) Time (LANDSAT-8) Lat,Lon (LANDSAT-8) SZA (LANDSAT-8 ) Distance(km) Time Diff (sec)
1 12/01/2024 05:30:58 70.22, 93.67 91.99 12/01/2024 05:32:01 70.22, 93.61 91.99 2.06 63
2 12/01/2024 06:21:40 -70.11, -98.85 88.11 12/01/2024 06:21:31 -70.11, -98.91 88.12 2.45 9
3 12/01/2024 07:12:15 69.54, 69.31 91.32 12/01/2024 07:11:05 69.62, 68.05 91.40 49.87 70
4 12/03/2024 21:47:51 70.20,-150.53 92.36 12/03/2024 21:48:29 70.19,-150.55 92.34 1.78 38
5 12/03/2024 22:38:33 -70.09, 16.96 87.76 12/03/2024 22:37:59 -70.08, 16.93 87.77 1.86 34
6 12/06/2024 13:14:10 -70.86, 156.88 86.65 12/06/2024 13:15:19 -70.74, 158.52 86.78 61.46 69
7 12/06/2024 14:04:42 70.15, -34.67 92.63 12/06/2024 14:04:55 70.14, -34.72 92.63 1.92 13
8 12/06/2024 14:55:24 -70.03, 132.82 87.49 12/06/2024 14:54:25 -70.03, 132.76 87.48 2.44 59
9 12/09/2024 05:30:51 -70.25, -86.36 86.99 12/09/2024 05:31:53 -70.26, -86.30 86.98 2.90 62
10 12/09/2024 06:21:34 70.11, 81.16 92.88 12/09/2024 06:21:21 70.09, 81.11 92.86 2.98 13
11 12/09/2024 07:12:08 -69.57,-110.72 87.67 12/09/2024 07:10:57 -69.66,-111.87 87.58 45.60 71
12 12/11/2024 21:47:42 -70.17, 29.53 86.84 12/11/2024 21:48:18 -70.21, 29.53 86.81 3.51 36
13 12/11/2024 22:38:26 70.10,-163.04 93.09 12/11/2024 22:37:45 70.09,-163.00 93.08 1.86 41
14 12/14/2024 13:13:57 70.56, -22.62 93.74 12/14/2024 13:15:08 70.47, -21.82 93.62 31.65 71
15 12/14/2024 14:04:33 -70.12, 145.38 86.72 12/14/2024 14:04:42 -70.14, 145.34 86.70 2.76 9
16 12/14/2024 14:55:17 70.05, -47.19 93.21 12/14/2024 14:54:09 70.02, -47.18 93.19 2.79 68



Historial Predications of SNOs between NOAA-21 and LANDSAT-8
